Location: Mercogliano
(40.9167°N, 14.7333°E)
Time: 04:27:05
(UTC+00:00)

Cosmos 2082 Rocket - Pass Details

Date: 18 September 2020
Orbit: 834 x 853 km, 71.0° (Epoch: 25 October)

Event Time Altitude Azimuth Distance (km) Brightness Sun altitude
Rises 20:41:52 0° 341° (NNW) 3,390 6.1 -38.0°
Reaches altitude 10° 20:44:26 10° 348° (NNW) 2,453 5.2 -38.3°
Enters shadow 20:46:17 21° 357° (N) 1,820 4.3 -38.5°
